Regional Weather Roundup
Issued by NWS New Orleans/Baton Rouge, LA

Home | Current Version | Previous Version | Graphics & Text | Print | Product List | Glossary On
Versions: 1 2 3 4 5 6 7 8 9 10 11 12 13 14 15 16 17 18 19 20 21 22 23 24 25 26 27 28 29 30 31 32 33 34 35 36 37 38 39 40 41 42 43 44 45 46 47 48 49 50
534
ASUS44 KLIX 222101
RWRLIX
NEW ORLEANS REGIONAL WEATHER ROUNDUP
NATIONAL WEATHER SERVICE NEW ORLEANS LA
300 PM CST SAT NOV 22 2014

NOTE: "FAIR" INDICATES FEW OR NO CLOUDS BELOW 12,000 FEET WITH NO
      SIGNIFICANT WEATHER AND/OR OBSTRUCTIONS TO VISIBILITY.
      SKY/WX - SKY CONDITION AND SIGNIFICANT WEATHER.
      TMP - AIR TEMPERATURE.     DP    - DEWPOINT TEMPERATURE.
      RH  - RELATIVE HUMIDITY.   PRES  - PRESSURE.
      HI  - HEAT INDEX.          WCI   - WIND CHILL INDEX.

*  THESE STATIONS ARE NOT NWS OR FAA STATIONS AND ARE NOT UNDER
   NWS QUALITY CONTROL.

LAZ038-040-048-061>063-065>067-069-222200-
SOUTHEAST LOUISIANA

CITY           SKY/WX    TMP DP  RH WIND       PRES   REMARKS
N.O. AUDUBON     N/A     67  62  82 MISG        N/A
N.O. INTL ARPT CLOUDY    68  59  73 E12       30.07S
N.O. LAKEFRONT CLOUDY    64  58  80 E12       30.07S
N.O. DOWNTOWN*   N/A     64  55  72 E9        30.07F
SLIDELL        CLOUDY    65  56  72 E6        30.09R
BATON ROUGE    CLOUDY    67  58  72 E16       30.05F
BOOTHVILLE     CLOUDY    67  64  90 E10       30.05F
BELLE CHASSE   CLOUDY    68  59  73 E12       30.06S
BOGALUSA*        N/A     69  55  60 SE7       30.10S
NEW ROADS*     NOT AVBL
GONZALES*      NOT AVBL
HAMMOND*       NOT AVBL
HOUMA*         PTSUNNY   70  63  78 E16       30.06
PORT FOURCHON* PTCLDY    70  64  83 E8        30.07S

$$

MSZ070-080>082-222200-
SOUTHERN MISSISSIPPI

CITY           SKY/WX    TMP DP  RH WIND       PRES   REMARKS
MCCOMB         PTSUNNY   68  54  60 SE7       30.08F
GULFPORT       CLOUDY    65  57  75 E12       30.09R HAZE
BILOXI         CLOUDY    65  58  77 E10       30.08S
PASCAGOULA     CLOUDY    65  57  75 E10       30.09F
STENNIS ARPT*  MOSUNNY   64  54  68 E8G17     30.09R

$$

COASTAL OBSERVATIONS
LAKE AND NEARSHORE STATIONS

STATION/POSITION TIME  TEMP    WIND        PRES    WAVE
                       AIR SEA DIR/SP/G            HT/PER
                 (UTC) (F)     (DEG/KT/KT) (MB)    (FT/S)
PASCAGOULA       2000   64      70/ 15/ 20 1018.4
WAVELAND YACHT   2000   61     100/ 19/ 22 1017.9
GRAND ISLE       2000   67 61  100/  7/ 11 1017.4
SOUTHWEST PASS   2000   70 71              1017.0
NEW CANAL        2000   65 55   80/  6/ 11 1018.8
SHELL BEACH      2000   64 52   90/ 13/ 17 1017.4

OFFSHORE STATIONS

STATION/POSITION TIME  TEMP    WIND        PRES    WAVE
                       AIR SEA DIR/SP/G            HT/PER
                 (UTC) (F)     (DEG/KT/KT) (MB)    (FT/S)
64 S DAUPHIN ISL 2047   69 73   90/ 25/ 29 1017.8    6/ 7

$$




USA.gov is the U.S. government's official web portal to all federal, state and local government web resources and services.